Cloud_Cover
0 0 0 0 0 0 0 0 0 0 0 0 0 0 0 0 0 0 2 5 2 3 1 2 3 4 8 0 4 0 0 0
0 0 0 0 0 0 0 0 0 0 0 0 0 0 0 0 0 2 4 5 3 5 8 16 2 0 0 0 0 0 0 0
0 0 0 0 0 0 0 0 0 0 0 0 0 0 0 0 0 1 4 5 5 5 8 1 0 0 0 0 0 0 0 0
0 0 0 0 0 0 0 0 0 0 0 0 0 0 0 0 0 0 0 1 0 1 0 0 0 0 0 0 0 0 0 0
0 0 0 0 0 0 0 0 0 0 0 0 0 0 0 0 0 0 0 0 0 0 0 0 0 0 0 0 0 0 0 0
0 0 0 0 0 0 0 0 0 0 0 0 0 0 0 0 0 0 0 0 0 0 0 0 0 0 0 0 0 0 0 0
3 0 0 0 0 0 0 0 0 0 0 0 0 0 0 0 0 0 0 0 0 1 0 0 0 0 0 0 0 0 0 0
2 5 3 3 5 5 24 5 15 0 0 0 0 0 0 0 0 0 0 0 2 0 0 0 0 0 0 0 0 0 0 0
5 33 38 5 5 41 70 12 7 67 39 4 5 1 0 0 2 0 1 2 0 0 0 0 0 5 5 4 5 4 0 0
19 98 89 9 4 0 1 2 0 5 1 0 0 0 2 5 5 4 1 1 0 5 4 4 0 5 4 0 0 0 0 0
5 5 5 4 0 5 2 4 5 44 57 17 23 8 5 5 4 0 0 0 0 1 1 4 5 1 2 4 5 5 5 4
83 100 92 92 54 94 84 83 62 41 54 33 5 5 5 5 5 5 5 3 0 0 0 0 0 0 2 4 5 5 2 5
100 100 58 5 5 30 95 96 34 5 5 5 3 4 5 5 5 3 0 0 0 0 0 0 0 3 5 5 5 0 0 0
100 98 34 5 5 5 15 26 5 5 5 5 4 0 0 0 0 4 5 5 0 0 0 0 0 4 5 5 9 2 5 4
78 23 5 5 7 5 5 3 0 0 0 0 0 0 0 0 3 3 5 5 5 5 4 5 2 4 5 10 61 10 5 31
20 38 10 9 3 0 0 0 0 0 0 0 0 0 0 0 0 3 1 1 1 2 0 2 4 8 16 5 5 5 5 44
6 14 5 0 0 0 0 0 0 0 0 0 0 0 0 0 0 0 0 5 5 12 48 81 83 99 12 20 20 20 28 73
92 3 0 0 0 0 0 0 0 0 0 0 0 0 0 1 10 68 100 55 29 41 10 89 99 98 100 84 70 41 75 99
0 0 0 0 0 0 0 0 0 0 0 0 0 16 18 100 97 100 100 100 100 100 100 100 88 100 100 100 99 99 12 42
0 0 0 0 0 0 0 0 0 0 2 64 78 99 100 100 100 100 100 100 100 100 100 100 100 100 100 100 100 100 41 93